Weather History for Wichita, KS

Change the Weather History Date:

Monday, October 7, 2013

  Actual Average Record
Temperature  
Mean Temperature 58 °F 62 °F  
Max Temperature 75 °F 73 °F 93 °F (1939)
Min Temperature 41 °F 50 °F 31 °F (1952)
Degree Days  
Heating Degree Days 7 5  
Month to date heating degree days 23 32  
Since 1 July heating degree days 28 75  
Cooling Degree Days 0 2  
Month to date cooling degree days 38 17  
Year to date cooling degree days 1765 1666  
Growing Degree Days 8 (Base 50)    
Moisture  
Dew Point 37 °F    
Average Humidity 51    
Maximum Humidity 76    
Minimum Humidity 25    
Precipitation  
Precipitation 0.00 in 0.10 in 1.57 in (1992)
Month to date precipitation 0.31 0.73  
Year to date precipitation 36.51 27.96  
Snow  
Snow 0.00 in 0.00 in 0.00 in (2007)
Month to date snowfall 0.0 0.0  
Since 1 July snowfall 0.0 0.0  
Since 1 September snowfall 0.0 0.0  
Snow Depth 0.00 in    
Sea Level Pressure  
Sea Level Pressure 30.11 in    
Wind  
Wind Speed 6 mph (SW)    
Max Wind Speed 13 mph    
Max Gust Speed 16 mph    
Visibility 10 miles    
Events      
T = Trace of Precipitation, MM = Missing Value Source: NWS Daily Summary

Daily Weather History Graph

Daily Weather History Graph

Search for Another Location

Airport:

Trip Planner

Search our weather history database for the weather conditions in past years. The results will help you decide how hot, cold, wet, or windy it might be!

Date:

Astronomy

Oct. 07, 2013 Rise Set
Actual Time 7:30 AM CDT 7:03 PM CDT
Civil Twilight 7:04 AM CDT 7:29 PM CDT
Nautical Twilight 6:34 AM CDT 7:59 PM CDT
Astronomical Twilight 6:03 AM CDT 8:30 PM CDT
Moon 10:18 AM CDT (10/7) 8:53 PM CDT (10/7)
Length of Visible Light 12h 24m
Length of Day
11h 32m
Waxing Crescent, 9% of the Moon is Illuminated
Oct 7
Waxing Crescent
Oct 11
First Quarter
Oct 18
Full
Oct 26
Last Quarter
Nov 3
New

Hourly Weather History & Observations

Time (CDT) Temp. Windchill Dew Point Humidity Pressure Visibility Wind Dir Wind Speed Gust Speed Precip Events Conditions
12:53 AM 51.1 °F - 35.1 °F 54% 30.07 in 10.0 mi WNW 3.5 mph - N/A   Clear
1:53 AM 48.0 °F - 35.1 °F 61% 30.08 in 10.0 mi NNW 8.1 mph - N/A   Clear
2:53 AM 48.0 °F - 34.0 °F 58% 30.09 in 10.0 mi NW 6.9 mph - N/A   Clear
3:53 AM 48.0 °F - 34.0 °F 58% 30.09 in 10.0 mi NNW 8.1 mph - N/A   Clear
4:53 AM 46.9 °F - 35.1 °F 63% 30.11 in 10.0 mi NNW 8.1 mph - N/A   Clear
5:53 AM 41.0 °F 39.0 °F 34.0 °F 76% 30.13 in 10.0 mi West 3.5 mph - N/A   Clear
6:53 AM 43.0 °F 41.3 °F 35.1 °F 74% 30.14 in 10.0 mi WNW 3.5 mph - N/A   Partly Cloudy
7:53 AM 42.1 °F - 36.0 °F 79% 30.16 in 10.0 mi Calm Calm - N/A   Clear
8:53 AM 52.0 °F - 39.9 °F 63% 30.19 in 10.0 mi Calm Calm - N/A   Partly Cloudy
9:53 AM 57.0 °F - 39.0 °F 51% 30.20 in 10.0 mi NW 4.6 mph - N/A   Clear
10:53 AM 62.1 °F - 39.0 °F 43% 30.19 in 10.0 mi Calm Calm - N/A   Partly Cloudy
11:53 AM 64.0 °F - 37.9 °F 38% 30.18 in 10.0 mi Calm Calm - N/A   Partly Cloudy
12:53 PM 68.0 °F - 36.0 °F 31% 30.16 in 10.0 mi South 5.8 mph - N/A   Clear
1:53 PM 71.1 °F - 34.0 °F 26% 30.13 in 10.0 mi Variable 4.6 mph - N/A   Partly Cloudy
2:53 PM 72.0 °F - 35.1 °F 26% 30.10 in 10.0 mi SSW 5.8 mph - N/A   Clear
3:53 PM 73.9 °F - 35.1 °F 24% 30.09 in 10.0 mi South 8.1 mph - N/A   Clear
4:53 PM 73.9 °F - 36.0 °F 25% 30.07 in 10.0 mi South 9.2 mph - N/A   Clear
5:53 PM 73.0 °F - 37.0 °F 27% 30.06 in 10.0 mi South 8.1 mph - N/A   Clear
6:53 PM 64.0 °F - 39.9 °F 41% 30.07 in 10.0 mi South 8.1 mph - N/A   Clear
7:53 PM 60.1 °F - 39.0 °F 46% 30.09 in 10.0 mi South 9.2 mph - N/A   Clear
8:53 PM 60.1 °F - 39.9 °F 47% 30.09 in 10.0 mi South 8.1 mph - N/A   Clear
9:53 PM 55.9 °F - 42.1 °F 60% 30.09 in 10.0 mi South 9.2 mph - N/A   Clear
10:53 PM 54.0 °F - 42.1 °F 64% 30.09 in 10.0 mi South 8.1 mph - N/A   Clear
11:53 PM 55.0 °F - 42.1 °F 62% 30.07 in 10.0 mi SSE 10.4 mph - N/A   Clear